Voltar ao catálogo

COSMOS 2147

AtivoMilitarPO
NORAD 21303·PAYLOAD·🇷🇺 Russia

Lançado May 16, 1991 de Plesetsk Cosmodrome

Loading…

Próximas Passagens (próximas 24 horas)

TLE

AtualizadoSource: Space-Track

Época: Sep 14, 2026, 07:28 UTC

1 21303U 91033E   26257.31116314  .00000012  00000-0  63419-5 0  9998
2 21303  82.5658 217.9577 0019271 155.6519 359.9990 12.65167699631416

Acompanhe COSMOS 2147 em tempo real com AllMySat

Download on the App Store